Location: Home
(42.5358°N, 72.7383°W)
Time: 00:45:46
(UTC-05:00)

BEESAT - Visible Passes

Search period start: 25 January 2022 00:00
Search period end: 04 February 2022 00:00
Orbit: 699 x 708 km, 98.6° (Epoch: 24 January)

Date Brightness Start Highest point End Pass type
(mag) Time Alt. Az. Time Alt. Az. Time Alt. Az.
25 Jan ? 06:21:16 10° SE 06:25:48 45° ENE 06:30:20 10° N visible
26 Jan ? 05:29:05 10° E 05:31:42 15° ENE 05:34:19 10° NNE visible
27 Jan ? 06:10:07 10° SE 06:14:26 35° ENE 06:18:44 10° N visible
28 Jan ? 05:18:52 10° ENE 05:20:25 11° ENE 05:21:58 10° NE visible
29 Jan ? 05:59:04 10° ESE 06:03:04 27° ENE 06:07:04 10° N visible
31 Jan ? 05:48:08 10° ESE 05:51:43 22° ENE 05:55:19 10° NNE visible
01 Feb ? 06:29:57 10° SSE 06:34:34 54° ENE 06:39:12 10° N visible
02 Feb ? 05:37:22 10° ESE 05:40:25 17° ENE 05:43:28 10° NNE visible
03 Feb ? 06:18:44 10° SE 06:23:10 41° ENE 06:27:38 10° N visible
